TimeEST,TemperatureF,Dew PointF,Humidity,Sea Level PressureIn,VisibilityMPH,Wind Direction,Wind SpeedMPH,Gust SpeedMPH,PrecipitationIn,Events,Conditions,WindDirDegrees,DateUTC
12:51 AM,27.0,21.0,78,30.22,10.0,Calm,Calm,-,N/A,,Clear,0,2013-01-03 05:51:00
1:51 AM,27.0,21.0,78,30.22,10.0,Calm,Calm,-,N/A,,Clear,0,2013-01-03 06:51:00
2:51 AM,26.1,19.9,78,30.23,10.0,Calm,Calm,-,N/A,,Clear,0,2013-01-03 07:51:00
3:51 AM,26.1,19.9,78,30.22,10.0,Calm,Calm,-,N/A,,Clear,0,2013-01-03 08:51:00
4:51 AM,24.1,21.0,88,30.23,7.0,Calm,Calm,-,N/A,,Clear,0,2013-01-03 09:51:00
5:51 AM,23.0,19.9,88,30.24,8.0,Calm,Calm,-,N/A,,Clear,0,2013-01-03 10:51:00
6:51 AM,21.0,19.0,92,30.26,5.0,Calm,Calm,-,N/A,,Clear,0,2013-01-03 11:51:00
7:51 AM,21.0,19.0,92,30.27,7.0,Calm,Calm,-,N/A,,Clear,0,2013-01-03 12:51:00
8:51 AM,23.0,21.0,92,30.28,7.0,Calm,Calm,-,N/A,,Clear,0,2013-01-03 13:51:00
9:51 AM,25.0,21.9,88,30.30,7.0,Calm,Calm,-,N/A,,Clear,0,2013-01-03 14:51:00
10:51 AM,30.2,23.0,75,30.27,9.0,Calm,Calm,-,N/A,,Clear,0,2013-01-03 15:51:00
11:51 AM,34.0,19.9,56,30.27,10.0,WSW,5.8,-,N/A,,Clear,250,2013-01-03 16:51:00
12:51 PM,37.0,21.0,52,30.24,10.0,WSW,4.6,-,N/A,,Clear,240,2013-01-03 17:51:00
1:51 PM,39.0,21.9,50,30.23,10.0,Variable,5.8,-,N/A,,Clear,0,2013-01-03 18:51:00
2:51 PM,39.2,21.2,49,30.20,10.0,West,6.9,-,N/A,,Clear,260,2013-01-03 19:51:00
3:51 PM,39.9,21.0,47,30.24,10.0,WSW,6.9,-,N/A,,Clear,240,2013-01-03 20:51:00
4:51 PM,37.9,19.9,48,30.26,10.0,WSW,9.2,-,N/A,,Clear,240,2013-01-03 21:51:00
5:51 PM,36.0,19.9,52,30.27,10.0,WSW,8.1,-,N/A,,Clear,250,2013-01-03 22:51:00
6:51 PM,35.1,18.0,50,30.29,10.0,West,8.1,-,N/A,,Clear,260,2013-01-03 23:51:00
7:51 PM,33.1,18.0,54,30.32,10.0,West,5.8,-,N/A,,Clear,260,2013-01-04 00:51:00
8:51 PM,32.0,19.0,59,30.32,10.0,West,5.8,-,N/A,,Clear,270,2013-01-04 01:51:00
9:51 PM,30.9,19.9,64,30.34,10.0,West,4.6,-,N/A,,Clear,260,2013-01-04 02:51:00
10:51 PM,30.0,19.9,66,30.34,10.0,West,3.5,-,N/A,,Scattered Clouds,260,2013-01-04 03:51:00
11:51 PM,30.0,21.0,69,30.34,10.0,SW,3.5,-,N/A,,Overcast,230,2013-01-04 04:51:00